Погода в Клаипеде

Поиск расширенной информации на нашем сайте:

Полезная информация:

Новости сайта



02.01.2020
Опубликован Долгосрочный прогноз погоды по городам России и ближнего зарубежья на январь 2020 года.
Карты: Прогноз на январь и февраль 2020 года, Сравнение прогнозируемой аномалии приземной температуры воздуха на январь 2020 года по разным моделям.




Погода в Клаипеде - сегодня

Время (UTC), дата Ветер
(°,м/с) 
Видим.   Явления Облачность Т
(°С)
Тd
(°С)
f(%) Тe
(°С)
Pmin
(гПа)
dP
(гПа)
Po
(мм)
O2
(г/м3)
Тmin Tmax R s Состояние
почвы
06 01.06.20 010 (С) 2-3{04}  20000 м    6/0 средняя 
[Ac trans]
+13.5 +4.5 54 +14  1024.5  768  294  +9.8        сухая 
09 01.06.20 330 (СЗ) 3-6{07}  20000 м    3/0 верхняя 
[Ci fib]
+14.1 +8.5 69 +14  1023.7  -0.8  767  292           
12 01.06.20 330 (СЗ) 3-7{08}  20000 м    3/1 1000 м верхняя 
[Cu med, cong|Ci fib]
+15.5 +7.5 59 +16  1022.1  -1.6  766  291           
15 01.06.20 330 (СЗ) 3-7{09}  20000 м    6/0 средняя 
[Ac trans]
+13.1 +8.7 75 +13  1020.4  -1.7  765  293           
18 01.06.20 320 (СЗ) 2-3{09}  20000 м    6/0 верхняя 
[Ci sp]
+15.2 +8.4 64 +16  1019.2  -1.2  764  290    +17.6       
21 01.06.20 030 (СВ) 2-4{07}  20000 м    6/0 средняя 
[Ac trans]
+14.4 +5.2 54 +15  1019.8  0.6  764  292           
00 02.06.20 040 (СВ) 2-3{05}  20000 м    ясно 
+9.9 +5.5 74 +10  1019.4  -0.4  764  296           
03 02.06.20 060 (СВ) 3-4{05}  20000 м    ясно 
+8.3 +3.9 74 +8  1018.9  -0.5  764  298           
06 02.06.20 050 (СВ) 3-5{06}  20000 м    ясно 
+13.7 +2.9 48 +14  1018.1  -0.8  763  292  +8.1        сухая 
09 02.06.20 070 (В) 2-7{08}  20000 м    ясно 
+17.3 +2.4 37 +18  1016.7  -1.4  762  288           
12 02.06.20 330 (СЗ) 4-7{09}  20000 м    4/4 1000 м 
[Cu med, cong]
+14.6 +7.4 62 +14  1015.3  -1.4  761  290           
15 02.06.20 330 (СЗ) 4-8{10}  20000 м    3/3 1000 м 
[Cu med, cong]
+14.3 +7.8 65 +14  1013.2  -2.1  759  289           
18 02.06.20 040 (СВ) 2-4{08}  20000 м    ясно 
+17.2 +2.4 37 +18  1012  -1.2  758  287    +18.2       
21 02.06.20 050 (СВ) 3-5{05}  20000 м    ясно 
+12 +3.2 55 +12  1012.4  0.4  759  292           
00 03.06.20 050 (СВ) 3-5{05}  20000 м    ясно 
+9.5 +2.7 62 +9  1010.8  -1.6  757  295           
03 03.06.20 070 (В) 3-5{06}  20000 м    ясно 
+8.2 +2.8 69 +8  1009.9  -0.9  757  296           
06 03.06.20 090 (В) 2-5{05}  20000 м    ясно 
+15.2 +5 51 +16  1009.6  -0.3  757  288  +7.8        сухая 
09 03.06.20 080 (В) 4-8{08}  20000 м    9/3 1000 м средняя 
[Sc|Ac As]
+17.8 +3.3 38 +18  1008.9  -0.7  756  285           
12 03.06.20 080 (В) 3-7{07}  20000 м    10/10 1000 м 
[Sc]
+15.5 +5.6 52 +16  1008.5  -0.4  756  287           
15 03.06.20 080 (В) 3-6{06}  20000 м    10/8 1000 м 
[Sc]
+16.3 +7 54 +17  1007.7  -0.8  755  286           
18 03.06.20 060 (СВ) 2-5{06}  20000 м    ясно 
+15.2 +7.2 59 +16  1006.7  -1  754  287    +18.4       
21 03.06.20 060 (СВ) 2-3{05}  20000 м    ясно 
+10.6 +6.8 77 +11  1006.4  -0.3  754  291           
00 04.06.20 060 (СВ) 2-4{04}  20000 м    ясно 
+8.8 +6.8 87 +9  1005.2  -1.2  753  293           
03 04.06.20 080 (В) 2-4{05}  20000 м    ясно 
+8.3 +6.7 90 +8  1004  -1.2  752  293           
06 04.06.20 100 (В) 2-4{05}  20000 м    ясно 
+15.1 +8.6 65 +16  1003.1  -0.9  752  286  +8        сухая 
Время (UTC), дата Ветер
(°,м/с) 
Видим.   Явления Облачность Т
(°С)
Тd
(°С)
f(%) Тe
(°С)
Pmin
(гПа)
dP
(гПа)
Po
(мм)
O2
(г/м3)
Тmin Tmax R s Состояние
почвы

Для получения пояснительной информации подведите курсор к названию столбца.

ПОГОДА в Клаипеде - архив

Всё, что Вы хотите узнать о погоде в Клаипеде - удобно и подробно!

Выберите нужную дату (начиная с 1 января 2019* года) и нажмите кнопку "Найти".
Будут отображены архивные сводки погоды по пункту Клаипеда, начиная с указанной даты.


Отображать данные в формате CSV (для использования в таблицах Excel)


Внимание! Наш архив погоды предназначен исключительно для личного некоммерческого использования в познавательных целях. Если Вам необходимы официальные справки о состоянии погоды (для производственных, юридических, коммерческих и т.п. целей), обращайтесь в органы Росгидромета.

*Примечание: данная дата относится к архиву по метеостанциям СССР (Россия, СНГ, Балтия).
Архив по метеостанциям Зарубежной Европы и Азии (кроме Китая) хранится 10 дней, по другим регионам земного шара (Китай, Африка, Америка, Австралия, Океания) - 1 день.

Клаипеда - район местоположения метеостанции


Название, широта, долгота, высота метеостанции:
Клаипеда 55.7°ш. 21.1°д. 7 м над ур. моря [Литва]

Дополнительная информация

В oтличие oт бoльшинства пoгoдных сайтoв мы публикуем пoдрoбную метеoинфoрмацию в детальнoм прoфессиoнальнoм фoрмате.

Характеристики температуры и влажнoсти вoздуха измеряются на высoте 2 м в тени вдали oт зданий и деревьев.
Скoрoсть ветра измеряется на высoте 10 м (на урoвне рoста челoвека скoрoсть ветра ниже в 1.5-2 раза). Если метеoстанция нахoдится в гoрoде или в лесу, тo скoрoсть ветра занижена на 2-4 м/с пo сравнению с oткрытым местoм. Скoрoсть ветра над акватoриями крупных рек и oзёр, а также на вершинах хoлмoв на 2-5 м/с выше, чем в oбычных услoвиях.
Атмoсфернoе давление в разных тoчках местнoсти мoжет значительнo oтличаться oт давления на метеoстанции, в зависимoсти oт услoвий рельефа (при пoдъёме на 10 м давление пoнижается примернo на 1 мм рт.ст.).